Weather History for KNTU - October, 2013

Change the Weather History Date:

Thursday, October 31, 2013

  Actual Average Record
Temperature  
Mean Temperature 66 °F -  
Max Temperature 77 °F 63 °F 81 °F (2004)
Min Temperature 57 °F 45 °F 33 °F (2008)
Cooling Degree Days 1    
Growing Degree Days 16 (Base 50)    
Moisture  
Dew Point 59 °F    
Average Humidity 75    
Maximum Humidity 93    
Minimum Humidity 46    
Precipitation  
Precipitation 0.00 in - - ()
Sea Level Pressure  
Sea Level Pressure 30.10 in    
Wind  
Wind Speed 9 mph (SSW)    
Max Wind Speed 16 mph    
Max Gust Speed 29 mph    
Visibility 10 miles    
Events      
Averages and records for this station are not official NWS values.
T = Trace of Precipitation, MM = Missing Value Source: NWS Daily Summary

Daily Weather History Graph

Daily Weather History Graph

Search for Another Location

Airport or City:

Trip Planner

Search our weather history database for the weather conditions in past years. The results will help you decide how hot, cold, wet, or windy it might be!

Date:

Astronomy

Oct. 31, 2013 Rise Set
Actual Time 7:27 AM EDT 6:07 PM EDT
Civil Twilight 7:00 AM EDT 6:34 PM EDT
Nautical Twilight 6:29 AM EDT 7:05 PM EDT
Astronomical Twilight 5:59 AM EDT 7:35 PM EDT
Moon 4:18 AM EDT (10/31) 4:20 PM EDT (10/31)
Length of Visible Light 11h 34m
Length of Day
10h 40m
Waning Crescent, 10% of the Moon is Illuminated
Oct 31
Waning Crescent
Nov 3
New
Nov 10
First Quarter
Nov 17
Full
Nov 25
Last Quarter

Hourly Weather History & Observations

Time (EDT) Temp. Dew Point Humidity Pressure Visibility Wind Dir Wind Speed Gust Speed Precip Events Conditions
12:56 AM 63.0 °F 54.0 °F 72% 30.22 in 10.0 mi SSW 8.1 mph - N/A   Mostly Cloudy
1:56 AM 61.0 °F 55.0 °F 81% 30.21 in 10.0 mi SSW 8.1 mph - N/A   Partly Cloudy
2:56 AM 61.0 °F 55.0 °F 81% 30.19 in 10.0 mi South 5.8 mph - N/A   Clear
3:56 AM 59.0 °F 55.0 °F 87% 30.20 in 10.0 mi SSW 3.5 mph - N/A   Clear
4:56 AM 57.0 °F 54.0 °F 89% 30.21 in 10.0 mi Calm Calm - N/A   Partly Cloudy
5:56 AM 57.0 °F 55.0 °F 93% 30.21 in 10.0 mi SW 3.5 mph - N/A   Scattered Clouds
6:56 AM 59.0 °F 55.9 °F 90% 30.19 in 10.0 mi South 5.8 mph - N/A   Scattered Clouds
7:56 AM 59.0 °F 55.9 °F 90% 30.20 in 10.0 mi SSW 3.5 mph - N/A   Mostly Cloudy
8:56 AM 63.0 °F 57.0 °F 81% 30.21 in 10.0 mi SW 9.2 mph - N/A   Mostly Cloudy
9:56 AM 68.0 °F 55.9 °F 65% 30.19 in 10.0 mi SSW 9.2 mph - N/A   Mostly Cloudy
10:56 AM 70.0 °F 55.9 °F 61% 30.17 in 10.0 mi SSW 6.9 mph - N/A   Mostly Cloudy
11:56 AM 73.0 °F 55.9 °F 55% 30.14 in 10.0 mi South 9.2 mph - N/A   Mostly Cloudy
12:56 PM 75.9 °F 55.9 °F 50% 30.11 in 10.0 mi South 10.4 mph - N/A   Overcast
1:56 PM 75.9 °F 54.0 °F 46% 30.08 in 10.0 mi SSW 16.1 mph 24.2 mph N/A   Overcast
2:56 PM 75.9 °F 60.1 °F 58% 30.06 in 10.0 mi South 12.7 mph - N/A   Overcast
3:56 PM 73.0 °F 63.0 °F 71% 30.04 in 10.0 mi South 15.0 mph 26.5 mph N/A   Mostly Cloudy
4:14 PM 72.0 °F 64.0 °F 76% 30.04 in 10.0 mi South 16.1 mph 28.8 mph N/A   Mostly Cloudy
4:56 PM 71.1 °F 64.9 °F 81% 30.03 in 10.0 mi South 12.7 mph 23.0 mph N/A   Mostly Cloudy
5:32 PM 71.1 °F 64.9 °F 81% 30.01 in 10.0 mi SSW 15.0 mph - N/A   Mostly Cloudy
5:56 PM 71.1 °F 64.9 °F 81% 30.02 in 10.0 mi South 12.7 mph 21.9 mph N/A   Overcast
6:56 PM 70.0 °F 63.0 °F 78% 30.01 in 10.0 mi SSW 15.0 mph 21.9 mph N/A   Overcast
7:56 PM 70.0 °F 63.0 °F 78% 30.01 in 10.0 mi South 10.4 mph - N/A   Overcast
8:56 PM 70.0 °F 62.1 °F 76% 29.99 in 10.0 mi SSW 13.8 mph - N/A   Overcast
9:56 PM 70.0 °F 62.1 °F 76% 29.99 in 10.0 mi SSW 11.5 mph - N/A   Overcast
10:56 PM 69.1 °F 62.1 °F 78% 29.99 in 10.0 mi South 9.2 mph - N/A   Overcast
11:56 PM 70.0 °F 64.0 °F 81% 29.97 in 10.0 mi South 11.5 mph - N/A   Overcast